sat.trackr.live / text

‹ back to catalog

STARLINK-5145

NORAD 54008 · 2022-125AW

PAYLOAD ACTIVE UNKNOWN

§ Identity

Operator
Country
US
Launch date
2022-10-05
Launch site
AFWTR
Launch vehicle
Mass (kg)
RCS (m²)

Purposes: comms

External: N2YO · Heavens-Above · Gunter

§ Orbital elements

Epoch: 2026-05-24T21:40:31.740096Z

Period
95.44 min
Inclination
53.2143°
Eccentricity
0.0001025
Mean motion
15.08835143 rev/d
Perigee alt
539.0 km
Apogee alt
540.5 km
Semi-major
6,917.9 km
B*
-2.7883e-6
RAAN
221.6274°
Arg perigee
79.9230°
Mean anomaly
280.1877°
Rev number
20,111

§ Raw data

STARLINK-51451 54008U 22125AW  26144.90314514 -.00000332  00000+0 -27883-5 0  99952 54008  53.2143 221.6274 0001025  79.9230 280.1877 15.08835143201115

JSON: /api/v1/satellites/54008 · /tle

For live sub-satellite position, see the globe view (requires WebGL).

§ Visibility from observer

Set your observer location to see the next 7 days of passes ≥ 10°. The values pass through the URL so the page stays shareable.

No JS? Fill the form by hand. The geolocation button needs JavaScript.